Powrót do katalogu

STARLINK-32460

AktywnyŁącznośćVLEO
NORAD 61914·PAYLOAD·🇺🇸 United States

Wystrzelony Nov 11, 2024 z Cape Canaveral Space Force Station

Loading…

Następne Przeloty (najbliższe 24 godziny)

TLE

ŚwieżeSource: CelesTrak SupGP

Epoka: Sep 15, 2026, 03:41 UTC

1 61914C 24207C   26258.15395833  .00003254  00000+0  11782-3 0  2589
2 61914  43.0026 291.3342 0001666 269.5308  68.6434 15.27586528    15

Śledź STARLINK-32460 w czasie rzeczywistym z AllMySat

Download on the App Store